Tyler, TX

12:56 AM CST on January 21, 2018 (GMT -0600)
Tyler Pounds

Weather History for KTYR - February, 2014

Change the Weather History Date:

Sunday, February 2, 2014

  Actual Average Record
Temperature  
Mean Temperature 37 °F 48 °F  
Max Temperature 42 °F 58 °F 83 °F (1989)
Min Temperature 32 °F 38 °F 2 °F (1951)
Degree Days  
Heating Degree Days 28 17  
Month to date heating degree days 38 34  
Since 1 July heating degree days 1622 1512  
Cooling Degree Days 0 0  
Month to date cooling degree days 0 0  
Year to date cooling degree days 0 4  
Moisture  
Dew Point 35 °F    
Average Humidity 95    
Maximum Humidity 100    
Minimum Humidity 89    
Precipitation  
Precipitation 0.71 in 0.12 in 2.39 in (1975)
Month to date precipitation 0.95 0.24  
Year to date precipitation 1.65 3.30  
Snow  
Snow 0.00 in - - ()
Month to date snowfall 0.0  
Since 1 July snowfall T  
Snow Depth 0.00 in    
Sea Level Pressure  
Sea Level Pressure 30.05 in    
Wind  
Wind Speed 12 mph (North)    
Max Wind Speed 20 mph    
Max Gust Speed 25 mph    
Visibility 5 miles    
Events Rain , Snow    
T = Trace of Precipitation, MM = Missing Value Source: NWS Daily Summary

Daily Weather History Graph

Daily Weather History Graph

Search for Another Location

Airport or City:

Trip Planner

Search our weather history database for the weather conditions in past years. The results will help you decide how hot, cold, wet, or windy it might be!

Date:

Astronomy

Feb. 02, 2014 Rise Set
Actual Time 7:15 AM CST 5:56 PM CST
Civil Twilight 6:49 AM CST 6:21 PM CST
Nautical Twilight 6:20 AM CST 6:50 PM CST
Astronomical Twilight 5:51 AM CST 7:19 PM CST
Moon 8:56 AM CST (2/2) 9:25 PM CST (2/2)
Length of Visible Light 11h 32m
Length of Day
10h 40m
Waxing Crescent, 11% of the Moon is Illuminated
Feb 2
Waxing Crescent
Feb 6
First Quarter
Feb 14
Full
Feb 22
Last Quarter
Mar 1
New

Hourly Weather History & Observations

Time (CST) Temp. Windchill Dew Point Humidity Pressure Visibility Wind Dir Wind Speed Gust Speed Precip Events Conditions
12:53 AM 41.0 °F 34.7 °F 41.0 °F 100% 29.97 in 6.0 mi North 10.4 mph - 0.03 in Rain Light Rain
1:17 AM 39.2 °F 30.5 °F 39.2 °F 100% 29.99 in 6.0 mi North 16.1 mph 21.9 mph N/A   Overcast
1:49 AM 39.2 °F 32.0 °F 39.2 °F 100% 29.99 in 5.0 mi North 11.5 mph - N/A   Overcast
1:53 AM 39.9 °F 32.9 °F 39.0 °F 97% 29.98 in 5.0 mi North 11.5 mph - N/A   Overcast
2:08 AM 39.2 °F 31.6 °F 39.2 °F 100% 29.98 in 6.0 mi North 12.7 mph - N/A   Overcast
2:33 AM 39.2 °F 31.6 °F 37.4 °F 93% 29.98 in 6.0 mi North 12.7 mph - N/A   Overcast
2:53 AM 39.0 °F 31.8 °F 37.9 °F 96% 29.98 in 6.0 mi North 11.5 mph - N/A   Overcast
3:53 AM 37.0 °F 29.8 °F 37.0 °F 100% 29.98 in 2.5 mi North 10.4 mph - 0.00 in   Overcast
4:04 AM 37.4 °F 28.9 °F 37.4 °F 100% 29.99 in 3.0 mi North 13.8 mph - N/A   Overcast
4:26 AM 35.6 °F 25.2 °F 35.6 °F 100% 29.98 in 3.0 mi North 18.4 mph - N/A   Overcast
4:50 AM 35.6 °F 27.1 °F 35.6 °F 100% 29.99 in 4.0 mi North 12.7 mph 19.6 mph 0.00 in   Overcast
4:53 AM 36.0 °F 26.7 °F 36.0 °F 100% 29.98 in 4.0 mi North 15.0 mph - 0.00 in Rain Light Rain
5:53 AM 36.0 °F 26.7 °F 35.1 °F 97% 29.99 in 4.0 mi North 15.0 mph - 0.01 in   Overcast
6:19 AM 35.6 °F 28.0 °F 35.6 °F 100% 30.01 in 2.5 mi North 10.4 mph - N/A   Overcast
6:42 AM 35.6 °F 26.6 °F 35.6 °F 100% 30.01 in 3.0 mi North 13.8 mph - 0.00 in Rain Light Freezing Rain
6:53 AM 35.1 °F 25.9 °F 35.1 °F 100% 30.01 in 3.0 mi North 13.8 mph 20.7 mph 0.00 in Rain Light Freezing Rain
7:12 AM 35.6 °F 27.5 °F 35.6 °F 100% 30.02 in 4.0 mi North 11.5 mph 21.9 mph 0.00 in   Overcast
7:27 AM 35.6 °F 26.6 °F 35.6 °F 100% 30.03 in 3.0 mi NNW 13.8 mph - 0.00 in Rain Light Freezing Rain
7:38 AM 35.6 °F 26.2 °F 35.6 °F 100% 30.00 in 3.0 mi North 15.0 mph 24.2 mph 0.00 in   Overcast
7:49 AM 35.6 °F 26.2 °F 35.6 °F 100% 30.01 in 2.5 mi North 15.0 mph 24.2 mph 0.00 in Rain Light Freezing Rain
7:53 AM 35.1 °F 26.4 °F 35.1 °F 100% 30.01 in 3.0 mi North 12.7 mph 24.2 mph 0.00 in Rain Light Freezing Rain
8:17 AM 35.6 °F 27.5 °F 35.6 °F 100% 30.03 in 3.0 mi North 11.5 mph - 0.00 in   Overcast
8:29 AM 35.6 °F 28.6 °F - N/A% 30.04 in 2.5 mi North 9.2 mph - 0.01 in Rain Light Freezing Rain
8:49 AM 35.6 °F 27.1 °F - N/A% 30.04 in 4.0 mi North 12.7 mph - 0.02 in Rain Light Freezing Rain
8:53 AM 35.1 °F 27.4 °F - N/A% 30.05 in 4.0 mi North 10.4 mph - 0.02 in Rain Light Freezing Rain
9:10 AM 35.6 °F 27.5 °F - N/A% 30.06 in 2.5 mi North 11.5 mph - 0.00 in Rain Light Rain
9:20 AM 35.6 °F 27.1 °F - N/A% 30.05 in 2.5 mi North 12.7 mph 20.7 mph 0.01 in Rain Light Freezing Rain
9:27 AM 35.6 °F 26.6 °F - N/A% 30.04 in 2.0 mi North 13.8 mph - 0.02 in Rain Light Freezing Rain
9:41 AM 35.6 °F 27.1 °F - N/A% 30.05 in 3.0 mi North 12.7 mph 21.9 mph 0.03 in Rain Light Freezing Rain
9:48 AM 35.6 °F 27.1 °F - N/A% 30.09 in 3.0 mi NW 12.7 mph - 0.04 in Rain Light Freezing Rain
9:53 AM 36.0 °F 28.5 °F - N/A% 30.10 in 3.0 mi NNW 10.4 mph - 0.05 in Rain Light Freezing Rain
9:56 AM 35.6 °F 28.6 °F - N/A% 30.09 in 2.5 mi NNW 9.2 mph - 0.00 in Rain Light Freezing Rain
10:02 AM 35.6 °F 27.1 °F - N/A% 30.09 in 3.0 mi North 12.7 mph - 0.01 in Rain Light Freezing Rain
10:05 AM 35.6 °F 27.1 °F - N/A% 30.09 in 2.5 mi North 12.7 mph 18.4 mph 0.02 in Rain Light Freezing Rain
10:17 AM 35.6 °F 27.5 °F - N/A% 30.08 in 3.0 mi NNW 11.5 mph - 0.04 in Rain Rain
10:26 AM 35.6 °F 26.6 °F - N/A% 30.08 in 4.0 mi North 13.8 mph 21.9 mph 0.04 in Rain Light Freezing Rain
10:44 AM 35.6 °F 27.1 °F - N/A% 30.08 in 3.0 mi North 12.7 mph 20.7 mph 0.07 in Rain Light Freezing Rain
10:53 AM 35.1 °F 26.4 °F - N/A% 30.08 in 6.0 mi North 12.7 mph 19.6 mph 0.08 in Rain Light Freezing Rain
11:26 AM 35.6 °F 27.1 °F - N/A% 30.07 in 10.0 mi North 12.7 mph - 0.00 in   Overcast
11:35 AM 35.6 °F 25.9 °F - N/A% 30.07 in 8.0 mi North 16.1 mph - 0.00 in Rain Light Freezing Rain
11:53 AM 35.1 °F 25.2 °F 34.0 °F 96% 30.08 in 5.0 mi North 16.1 mph - 0.00 in Rain Light Rain
12:03 PM 35.6 °F 26.6 °F 33.8 °F 93% 30.08 in 3.0 mi North 13.8 mph - 0.06 in Rain Light Freezing Rain
12:06 PM 35.6 °F 26.2 °F 33.8 °F 93% 30.07 in 1.8 mi North 15.0 mph - 0.11 in Rain Light Freezing Rain
12:21 PM 35.6 °F 26.6 °F 33.8 °F 93% 30.07 in 3.0 mi North 13.8 mph - 0.16 in Rain Light Freezing Rain
12:31 PM 35.6 °F 26.2 °F 33.8 °F 93% 30.07 in 5.0 mi North 15.0 mph 23.0 mph 0.16 in Rain Light Freezing Rain
12:45 PM 35.6 °F 28.0 °F 33.8 °F 93% 30.06 in 7.0 mi North 10.4 mph 19.6 mph 0.17 in Snow Light Snow
12:53 PM 35.1 °F 24.8 °F 34.0 °F 96% 30.05 in 9.0 mi North 17.3 mph 20.7 mph 0.17 in   Overcast
1:07 PM 35.6 °F 26.6 °F 33.8 °F 93% 30.03 in 9.0 mi North 13.8 mph 19.6 mph 0.00 in Rain Light Freezing Rain
1:17 PM 35.6 °F 29.2 °F 33.8 °F 93% 30.04 in 3.0 mi North 8.1 mph - 0.02 in Rain Light Freezing Rain
1:21 PM 35.6 °F 29.9 °F 33.8 °F 93% 30.06 in 2.0 mi North 6.9 mph 17.3 mph 0.04 in Rain Heavy Rain
1:25 PM 35.6 °F 28.6 °F 33.8 °F 93% 30.05 in 1.8 mi North 9.2 mph - 0.08 in Rain Light Freezing Rain
1:53 PM 36.0 °F 29.6 °F 35.1 °F 97% 30.04 in 2.5 mi North 8.1 mph - 0.26 in Rain Heavy Rain
2:04 PM 35.6 °F 29.9 °F 35.6 °F 100% 30.05 in 3.0 mi North 6.9 mph - 0.03 in Rain Light Freezing Rain
2:26 PM 35.6 °F 28.0 °F 35.6 °F 100% 30.04 in 5.0 mi North 10.4 mph - 0.06 in Rain Light Rain
2:36 PM 35.6 °F 28.0 °F 35.6 °F 100% 30.05 in 8.0 mi North 10.4 mph - 0.06 in Rain Light Freezing Rain
2:53 PM 36.0 °F 28.0 °F 35.1 °F 97% 30.06 in 6.0 mi North 11.5 mph - 0.07 in Rain Light Freezing Rain
3:04 PM 37.4 °F 29.8 °F 35.6 °F 93% 30.07 in 6.0 mi NNW 11.5 mph - 0.01 in Rain Light Rain
3:53 PM 37.0 °F 28.9 °F 35.1 °F 93% 30.09 in 7.0 mi NNW 12.7 mph - 0.02 in   Overcast
4:53 PM 37.0 °F 29.3 °F 35.1 °F 93% 30.07 in 10.0 mi North 11.5 mph 19.6 mph 0.00 in   Overcast
5:53 PM 36.0 °F 26.7 °F 35.1 °F 97% 30.12 in 9.0 mi North 15.0 mph - N/A   Overcast
6:53 PM 36.0 °F 28.0 °F 34.0 °F 93% 30.16 in 9.0 mi NNW 11.5 mph - 0.00 in Snow Light Snow
7:53 PM 35.1 °F 25.9 °F 33.1 °F 92% 30.18 in 9.0 mi NNW 13.8 mph - 0.00 in   Overcast
8:53 PM 34.0 °F 24.2 °F 30.9 °F 89% 30.20 in 8.0 mi North 15.0 mph - 0.00 in   Overcast
9:53 PM 33.1 °F 26.9 °F 30.9 °F 92% 30.22 in 7.0 mi NNW 6.9 mph - N/A   Overcast
10:53 PM 33.1 °F 25.5 °F 30.0 °F 89% 30.23 in 6.0 mi NNW 9.2 mph - N/A   Overcast
11:53 PM 32.0 °F 24.2 °F 30.0 °F 92% 30.23 in 7.0 mi North 9.2 mph - N/A   Overcast